This is the latest recevied weather packets stored in our database for station/object KC3VCX. If no packets are shown the sender has not sent any weather packets the latest 10 day(s).
| Time | Temp. | Humidity | Pressure | Rain* | Wind** | Luminosity | Snow |
|---|---|---|---|---|---|---|---|
| 1777677655 | 7.78° C | 90% | 1013.1 hPa | 0 mm | - | 11 W/m² | - |
| 1777677353 | 8.33° C | 90% | 1013.2 hPa | 0 mm | - | 28 W/m² | - |
| 1777677051 | 7.78° C | 90% | 1013 hPa | 0 mm | - | 50 W/m² | - |
| 1777676750 | 7.78° C | 90% | 1013.4 hPa | 0 mm | - | 58 W/m² | - |
| 1777676447 | 7.78° C | 90% | 1013.2 hPa | 0 mm | - | 57 W/m² | - |
| 1777676144 | 7.78° C | 90% | 1013.5 hPa | 0 mm | - | 17 W/m² | - |
| 1777675841 | 7.78° C | 90% | 1013.5 hPa | 0 mm | - | 53 W/m² | - |
| 1777675538 | 8.33° C | 90% | 1013.4 hPa | 0 mm | - | 55 W/m² | - |
| 1777675235 | 8.33° C | 90% | 1013.6 hPa | 0 mm | - | 72 W/m² | - |
| 1777674932 | 8.33° C | 90% | 1013.5 hPa | 0 mm | - | 97 W/m² | - |
| 1777674628 | 7.78° C | 90% | 1013.5 hPa | 0 mm | - | 96 W/m² | - |
| 1777674326 | 7.78° C | 89% | 1013.6 hPa | 0 mm | - | 72 W/m² | - |
| 1777674022 | 7.78° C | 89% | 1013.6 hPa | 0 mm | - | 77 W/m² | - |
| 1777673718 | 7.78° C | 89% | 1013.4 hPa | 0 mm | - | 51 W/m² | - |
| 1777673415 | 7.78° C | 89% | 1013.6 hPa | 0 mm | - | 57 W/m² | - |
| 1777673112 | 7.78° C | 89% | 1013.7 hPa | 0 mm | - | 54 W/m² | - |
| 1777672809 | 7.78° C | 89% | 1013.5 hPa | 0 mm | - | 67 W/m² | - |
| 1777672500 | 7.78° C | 89% | 1013.7 hPa | 0 mm | - | 60 W/m² | - |
| 1777672195 | 7.78° C | 89% | 1013.5 hPa | 0 mm | - | 52 W/m² | - |
| 1777671891 | 7.22° C | 89% | 1013.4 hPa | 0 mm | - | 83 W/m² | - |
| 1777671587 | 7.78° C | 90% | 1013.5 hPa | 0 mm | - | 74 W/m² | - |
| 1777671284 | 7.22° C | 90% | 1014 hPa | 1.27 mm | - | 78 W/m² | - |
| 1777670979 | 7.78° C | 89% | 1013.9 hPa | 1.27 mm | - | 32 W/m² | - |
| 1777670676 | 7.22° C | 89% | 1013.9 hPa | 3.05 mm | - | 41 W/m² | - |
| 1777670373 | 7.78° C | 89% | 1013.9 hPa | 1.78 mm | - | 28 W/m² | - |
* Rain latest hour (hover to see other rain measurements)
** Current wind speed in m/s (hover to see current wind gust speed)